[[{"header":{"parameterUnit":"m.s-1","parameterCategory":1,"la1":30.2991,"la2":30.254,"lo1":-89.0895,"lo2":-89.0444,"dy":0.0017,"dx":0.0017,"nx":28,"ny":28,"refTime":"2025-12-22T03:00:00:Z","depth":0,"parameterNumber":2,"parameterNumberName":"U-component_of_WINDS"},"data":[0,0,0,0,0,0,0,0,0,0,0,0,0,0,0,0,0,0,0,0,0,0,0,0,0,0,0,0,0,0,0,0,0,0,0,0,0,0,0,0,0,0,0,0,0,0,0,0,0,0,0,0,0,0,0,0,0,0,-3.8356,-3.8358,0,-3.8475,-3.8476,-3.8478,-3.8482,-3.8481,-3.8479,-3.8478,-3.86,-3.8604,-3.8609,0,0,0,0,0,0,0,0,0,0,0,0,0,-3.8137,-3.8141,-3.8356,-3.8358,-3.8359,-3.8475,-3.8476,-3.8478,-3.8482,-3.8481,-3.8479,-3.8477,-3.8598,-3.8604,-3.8609,0,0,0,0,0,0,0,0,0,0,0,0,0,-3.8241,-3.8142,-3.8356,-3.8375,-3.8378,-3.8474,-3.8476,-3.8478,-3.8483,-3.8481,-3.8479,-3.8477,-3.8596,-3.8603,-3.861,-3.8694,0,0,-3.8631,-3.8634,0,0,0,0,0,0,0,0,-3.8235,-3.8249,-3.8371,-3.8374,-3.8378,-3.8462,-3.8443,-3.8551,-3.8483,-3.8443,-3.8478,-3.8476,-3.8555,-3.8566,-3.8592,-3.87,-3.8705,-3.8631,-3.8635,-3.8638,-3.864,0,0,0,0,0,0,0,-3.8228,-3.8244,-3.8403,-3.8373,-3.8377,-3.8379,-3.8392,-3.8464,-3.851,-3.8446,-3.8447,-3.8461,-3.8557,-3.8586,-3.8595,-3.8707,-3.8631,-3.8637,-3.8641,-3.8644,-3.8894,-3.8896,0,0,0,0,0,0,-3.8217,-3.8238,-3.8399,-3.8407,-3.83,-3.8385,-3.8399,-3.8437,-3.8509,-3.8518,-3.8463,-3.8461,-3.8575,-3.8587,-3.86,-3.8705,-3.8638,-3.8645,-3.8649,-3.8891,-3.8894,-3.8897,0,0,0,0,0,0,-3.8212,-3.8231,-3.8395,-3.8323,-3.8344,-3.8391,-3.8433,-3.844,-3.8469,-3.8521,-3.853,-3.8484,-3.8574,-3.859,-3.8672,-3.8709,-3.8648,-3.8654,-3.8888,-3.8892,-3.8895,-3.8915,0,0,0,0,0,0,-3.8206,-3.8229,-3.8261,-3.8323,-3.8348,-3.8464,-3.8436,-3.8444,-3.8481,-3.8479,-3.8543,-3.8552,-3.8574,-3.8661,-3.8678,-3.8717,-3.8659,-3.8885,-3.889,-3.8894,-3.8911,-3.8919,-3.8926,0,0,0,0,0,-3.8198,-3.8261,-3.8263,-3.8282,-3.8388,-3.8466,-3.8479,-3.8503,-3.8484,-3.8517,-3.8551,-3.855,-3.8703,-3.867,-3.8689,-3.873,-3.8883,-3.8888,-3.8894,-3.8908,-3.8917,-3.8925,0,0,0,0,0,0,-3.8201,-3.827,-3.8272,-3.8357,-3.8406,-3.8466,-3.8508,-3.8512,-3.8567,-3.8563,-3.8591,-3.8606,-3.8687,-3.8717,-3.8679,-3.8818,-3.8791,-3.88,-3.8795,-3.8804,-3.8811,-3.8802,-3.8665,0,0,0,0,0,-3.8212,-3.8269,-3.8326,-3.8396,-3.842,-3.846,-3.8495,-3.8509,-3.8561,-3.8581,-3.8621,-3.8671,-3.8731,-3.8769,-3.8827,-3.8916,-3.8931,-3.8955,-3.8962,-3.8968,-3.8976,-3.9027,-3.9039,-3.8915,-3.8915,-3.8915,0,0,-3.8234,-3.8279,-3.8313,-3.8398,-3.8437,-3.8496,-3.8477,-3.854,-3.8584,-3.8591,-3.867,-3.8702,-3.876,-3.8846,-3.8886,-3.8874,-3.9014,-3.8975,-3.8979,-3.8984,-3.9034,-3.9046,-3.9056,-3.8919,-3.8919,-3.8918,0,0,-3.8305,-3.8344,-3.8408,-3.8448,-3.8508,-3.8535,-3.8551,-3.8612,-3.8633,-3.8714,-3.8721,-3.8775,-3.8876,-3.8918,-3.8953,-3.9044,-3.9046,-3.9063,-3.91,-3.915,-3.916,-3.9168,-3.9202,-3.9214,-3.9071,-3.9071,-3.9071,0,-3.8325,-3.8414,-3.844,-3.8503,-3.8541,-3.8551,-3.8617,-3.8655,-3.8731,-3.8757,-3.8743,-3.8873,-3.8912,-3.901,-3.9032,-3.906,-3.9079,-3.9054,-3.9156,-3.9165,-3.9174,-3.9206,-3.9219,-3.9072,-3.9072,-3.9072,-3.9072,0,-3.8436,-3.8498,-3.8542,-3.8616,-3.866,-3.8724,-3.876,-3.8801,-3.8814,-3.8843,-3.8926,-3.8975,-3.9044,-3.9068,-3.908,-3.9168,-3.9159,-3.915,-3.9123,-3.9187,-3.9218,-3.923,-3.9075,-3.9074,-3.9073,-3.9073,0,0,-3.8509,-3.8599,-3.8615,-3.865,-3.8719,-3.8768,-3.8834,-3.8902,-3.8937,-3.8991,-3.9047,-3.9135,-3.9128,-3.9168,-3.9185,-3.9229,-3.93,-3.9215,-3.9217,-3.923,-3.9402,-3.9408,-3.9422,-3.9303,-3.9305,-3.9307,-3.9398,0,-3.8587,-3.8704,-3.8731,-3.8832,-3.889,-3.8903,-3.8961,-3.901,-3.904,-3.9095,-3.9129,-3.9191,-3.9177,-3.9201,-3.9245,-3.9282,-3.9335,-3.9276,-3.9356,-3.9359,-3.934,-3.9438,-3.9443,-3.9526,-3.941,-3.9412,-3.9413,0,-3.8693,-3.875,-3.8857,-3.8921,-3.8947,-3.8998,-3.9064,-3.9117,-3.9174,-3.9193,-3.9239,-3.9253,-3.9324,-3.9295,-3.9394,-3.9353,-3.9388,-3.9412,-3.9416,-3.9423,-3.9389,-3.9448,-3.9553,-3.9565,-3.9432,-3.9431,-3.943,0,-3.8736,-3.884,-3.8918,-3.8947,-3.9024,-3.906,-3.9094,-3.915,-3.919,-3.9248,-3.9275,-3.9341,-3.9377,-3.9428,-3.946,-3.9436,-3.9557,-3.953,-3.9575,-3.9575,-3.9599,-3.9596,-3.9711,-3.9622,-3.9622,-3.9622,-3.9622,0,-3.882,-3.8885,-3.8938,-3.8986,-3.906,-3.9092,-3.9165,-3.9199,-3.9249,-3.9305,-3.932,-3.9372,-3.9412,-3.947,-3.9495,-3.9574,-3.959,-3.9609,-3.9614,-3.9607,-3.9604,-3.9629,-3.9624,-3.9625,-3.9625,-3.9624,-3.9623,0,-3.8879,-3.8917,-3.9003,-3.907,-3.9089,-3.9141,-3.9198,-3.9246,-3.9278,-3.9349,-3.9367,-3.9417,-3.9487,-3.9524,-3.9611,-3.9629,-3.9717,-3.972,-3.9698,-3.97,-3.9743,-3.9739,-3.9877,-3.9897,-3.9795,-3.9796,-3.9797,0,-3.893,-3.898,-3.9054,-3.9092,-3.9127,-3.9189,-3.9231,-3.9266,-3.9308,-3.938,-3.942,-3.9491,-3.9549,-3.966,-3.9704,-3.9772,-3.9777,-3.9821,-3.9787,-3.9778,-3.9778,-3.9774,-3.978,-3.9826,-3.9827,-3.9827,-3.9828,0,-3.9016,-3.9033,-3.9092,-3.916,-3.9209,-3.9264,-3.9318,-3.9349,-3.9393,-3.9441,-3.9513,-3.9558,-3.9648,-3.9719,-3.9791,-3.9827,-3.9835,-3.9839,-3.9853,-3.9845,-3.983,-3.9839,-3.9713,-3.9835,-3.9834,-3.9834,-3.9833,-3.9833,-3.9072,-3.9118,-3.9178,-3.9245,-3.929,-3.9341,-3.939,-3.9429,-3.9489,-3.9565,-3.9583,-3.9659,-3.9719,-3.9816,-3.9855,-3.9916,-3.9907,-3.9927,-3.9932,-3.9937,-3.9939,-3.9821,-3.9929,-3.9929,-3.9929,-3.9929,-3.9929,0,-3.9159,-3.9199,-3.926,-3.9336,-3.9389,-3.9394,-3.9455,-3.9499,-3.9566,-3.9621,-3.9679,-3.9763,-3.9833,-3.9885,-3.9956,-3.9995,-4.0001,-4.0013,-4.001,-4.0018,-3.9942,-3.9923,-4.0007,-4.0007,-4.0007,-4.0007,-4.0007,-4.0007,-3.921,-3.929,-3.9315,-3.9418,-3.9457,-3.9532,-3.9567,-3.9615,-3.966,-3.9753,-3.9811,-3.9844,-3.9899,-3.9975,-4.004,-4.0054,-4.0079,-4.0091,-4.0105,-4.0032,-4.0023,-4.0015,-3.9997,-4.0096,-4.0096,-4.0176,-4.0177,-4.0177]},{"header":{"parameterUnit":"m.s-1","parameterCategory":1,"la1":30.2991,"la2":30.254,"lo1":-89.0895,"lo2":-89.0444,"dy":0.0017,"dx":0.0017,"nx":28,"ny":28,"refTime":"2025-12-22T03:00:00:Z","depth":0,"parameterNumber":3,"parameterNumberName":"V-component_of_WINDS"},"data":[0,0,0,0,0,0,0,0,0,0,0,0,0,0,0,0,0,0,0,0,0,0,0,0,0,0,0,0,0,0,0,0,0,0,0,0,0,0,0,0,0,0,0,0,0,0,0,0,0,0,0,0,0,0,0,0,0,0,1.6483,1.6484,0,1.6524,1.6525,1.6525,1.6573,1.6574,1.6574,1.6575,1.6614,1.6615,1.6615,0,0,0,0,0,0,0,0,0,0,0,0,0,1.6445,1.6445,1.6483,1.6484,1.6484,1.6524,1.6525,1.6525,1.6573,1.6574,1.6574,1.6575,1.6614,1.6615,1.6615,0,0,0,0,0,0,0,0,0,0,0,0,0,1.6471,1.6445,1.6483,1.6513,1.6516,1.6524,1.6525,1.6525,1.6572,1.6574,1.6575,1.6576,1.6614,1.6615,1.6615,1.6597,0,0,1.6617,1.6617,0,0,0,0,0,0,0,0,1.6469,1.6472,1.6508,1.6511,1.6514,1.6545,1.6526,1.6549,1.6572,1.6551,1.6575,1.6576,1.659,1.6593,1.6598,1.6599,1.6601,1.6617,1.6617,1.6618,1.6618,0,0,0,0,0,0,0,1.6467,1.6471,1.6499,1.6508,1.6512,1.6524,1.6529,1.653,1.6564,1.6553,1.6556,1.6561,1.6592,1.6597,1.6599,1.6601,1.6617,1.6618,1.6618,1.6618,1.6591,1.659,0,0,0,0,0,0,1.6461,1.6469,1.6498,1.6501,1.6494,1.6523,1.6529,1.6534,1.6564,1.657,1.656,1.6563,1.6596,1.6599,1.6601,1.6583,1.6618,1.6618,1.6619,1.6592,1.6591,1.659,0,0,0,0,0,0,1.646,1.6464,1.6496,1.6486,1.6491,1.6523,1.6528,1.6534,1.6539,1.6569,1.6575,1.6559,1.6597,1.66,1.6598,1.6585,1.6618,1.6619,1.6593,1.6592,1.659,1.6546,0,0,0,0,0,0,1.6459,1.6463,1.6457,1.6485,1.6491,1.6493,1.6527,1.6534,1.654,1.6545,1.657,1.6575,1.6598,1.6597,1.6599,1.6586,1.6619,1.6595,1.6592,1.6591,1.6549,1.6543,1.6538,0,0,0,0,0,1.6458,1.6441,1.6456,1.6459,1.6484,1.6492,1.6496,1.6523,1.6539,1.6533,1.6553,1.6575,1.6586,1.6597,1.6599,1.6586,1.6596,1.6593,1.6591,1.6551,1.6544,1.6538,0,0,0,0,0,0,1.6409,1.6446,1.6462,1.6455,1.647,1.6501,1.6494,1.6514,1.6525,1.6528,1.656,1.6566,1.656,1.6573,1.6584,1.6571,1.6594,1.6592,1.6563,1.6557,1.6551,1.6549,1.662,0,0,0,0,0,1.6398,1.6402,1.6434,1.6424,1.6431,1.6461,1.6466,1.6485,1.6502,1.6509,1.6528,1.6543,1.655,1.6554,1.6562,1.6551,1.6557,1.6543,1.6538,1.6533,1.6531,1.6528,1.6522,1.6582,1.6582,1.6582,0,0,1.6374,1.6395,1.6395,1.6415,1.6429,1.6433,1.6466,1.6468,1.6471,1.6509,1.6509,1.6523,1.6542,1.6536,1.6534,1.6546,1.6516,1.653,1.6526,1.6527,1.6525,1.6519,1.6514,1.658,1.658,1.6581,0,0,1.6333,1.6349,1.6343,1.6357,1.6379,1.6399,1.6398,1.6425,1.6437,1.6438,1.6466,1.647,1.6481,1.6494,1.6502,1.6467,1.6488,1.6469,1.6441,1.6437,1.6433,1.6429,1.6417,1.6413,1.6466,1.6466,1.6466,0,1.6301,1.6308,1.6338,1.6339,1.6347,1.6382,1.6378,1.6389,1.6412,1.6417,1.643,1.6446,1.6461,1.6459,1.6451,1.6456,1.6456,1.6466,1.6431,1.6427,1.6424,1.6414,1.6409,1.6464,1.6464,1.6464,1.6465,0,1.6268,1.6272,1.6266,1.6288,1.6296,1.6293,1.6323,1.6327,1.6346,1.6364,1.6365,1.6385,1.6398,1.6399,1.6417,1.64,1.6407,1.6425,1.6449,1.6415,1.6406,1.6402,1.646,1.6461,1.6462,1.6463,0,0,1.6197,1.6237,1.6234,1.6246,1.6273,1.6277,1.6276,1.6291,1.6294,1.6308,1.6309,1.6319,1.6337,1.6345,1.6365,1.6361,1.6335,1.6381,1.6382,1.6372,1.6318,1.6305,1.63,1.6348,1.6348,1.6347,1.6317,0,1.6162,1.6165,1.6192,1.6187,1.6192,1.6226,1.6226,1.6243,1.626,1.6267,1.6286,1.6293,1.6314,1.632,1.6318,1.6338,1.6324,1.6341,1.635,1.635,1.6345,1.6295,1.6281,1.6252,1.6314,1.6313,1.6313,0,1.6121,1.6135,1.6131,1.6159,1.6163,1.6162,1.6178,1.6184,1.6204,1.6217,1.6227,1.625,1.6252,1.6274,1.6277,1.6288,1.6293,1.6304,1.6303,1.6306,1.633,1.6298,1.6243,1.6239,1.6307,1.6308,1.6308,0,1.6072,1.6089,1.609,1.6098,1.6131,1.613,1.6143,1.6164,1.6171,1.6185,1.619,1.6203,1.621,1.622,1.6246,1.6259,1.6247,1.627,1.6258,1.6257,1.6254,1.6254,1.6201,1.6256,1.6256,1.6256,1.6256,0,1.603,1.6027,1.6068,1.6068,1.6065,1.6097,1.6093,1.6109,1.6128,1.6132,1.6161,1.6164,1.6198,1.6204,1.6224,1.6225,1.6227,1.6238,1.6244,1.6236,1.6235,1.6241,1.6244,1.6255,1.6255,1.6255,1.6255,0,1.5975,1.6003,1.6005,1.6037,1.6045,1.6041,1.6068,1.6069,1.6089,1.6094,1.6097,1.6127,1.6137,1.6163,1.6179,1.6193,1.6188,1.6197,1.6182,1.6186,1.6172,1.6173,1.6121,1.6117,1.6173,1.6172,1.6172,0,1.5947,1.5946,1.5977,1.5983,1.5996,1.6003,1.6012,1.6042,1.6049,1.6072,1.6071,1.6083,1.6095,1.6109,1.6132,1.6145,1.6155,1.6136,1.6157,1.6151,1.6157,1.6157,1.6158,1.6132,1.6131,1.6131,1.613,0,1.5896,1.591,1.5921,1.5937,1.5946,1.596,1.5975,1.5977,1.6012,1.6018,1.603,1.6039,1.6056,1.6068,1.6084,1.6098,1.612,1.6123,1.6121,1.6114,1.6106,1.6111,1.617,1.6124,1.6125,1.6125,1.6126,1.6126,1.5855,1.5855,1.5878,1.589,1.5905,1.5919,1.5922,1.5943,1.5953,1.597,1.5988,1.5997,1.6017,1.6042,1.6054,1.6062,1.6073,1.607,1.6069,1.6068,1.6066,1.6104,1.6065,1.6065,1.6065,1.6065,1.6065,0,1.5806,1.5823,1.5833,1.5854,1.5863,1.5884,1.5902,1.5909,1.5917,1.5934,1.5946,1.5959,1.5971,1.5995,1.601,1.6011,1.6022,1.6014,1.6015,1.6018,1.6054,1.6055,1.6005,1.6005,1.6005,1.6005,1.6005,1.6006,1.5782,1.5785,1.5801,1.5812,1.5829,1.5839,1.5848,1.5861,1.5876,1.5889,1.59,1.5916,1.5937,1.5953,1.5965,1.5972,1.5977,1.5966,1.5976,1.6009,1.6015,1.6021,1.6022,1.5966,1.5966,1.594,1.594,1.5939]}]]